Terminal Aerodrome Forecast
Issued by NWS

Current Version | Previous Version | Graphics & Text | Print | Product List | Glossary On
Versions: 1 2 3 4 5 6 7 8 9 10 11 12 13 14 15 16 17 18 19 20 21 22 23 24 25 26 27 28 29 30 31 32 33 34 35 36 37 38 39 40 41 42 43
000
FTUS41 KRNK 151140
TAFLWB
TAF
KLWB 151140Z 1512/1612 01003KT 1SM BR OVC004
      TEMPO 1512/1513 1/2SM FZFG VV001
     FM151400 VRB03KT 4SM BR OVC008
     FM151600 VRB03KT P6SM SCT015
     FM152200 12004KT P6SM SCT250
     FM160500 14004KT P6SM SCT100 OVC150
     FM160900 02003KT 4SM -SHRA BR SCT012 OVC060=

USA.gov is the U.S. government's official web portal to all federal, state and local government web resources and services.